Bellingham, WA
on Sunday, February 3, 2013

Sunday
Previous Day Next Day
Daily Summary
 ActualAverageRecord
Temperature
Mean Temperature °F 40°F  
Max Temperature 45°F 47°F 60°F (1992)
Min Temperature 39°F 33°F 5°F (1950)
Degree Days
Heating Degree Days 23 25  
Month to date heating degree days 75  
Cooling Degree Days 0 0  
Month to date cooling degree days 0  
Year to date cooling degree days 0  
Moisture
Dew Point 41°F   
Average Humidity 95    
Maximum Humidity 100    
Minimum Humidity 89    
Precipitation
Precipitation 0.10 in 0.12 in 1.39 in (1967)
Month to date precipitation 0.35  
Year to date precipitation 5.02  
Wind
Wind Speed 5 mph   
Max Wind Speed 10 mph   
Max Gust Speed mph   
Visibility 5 miles   
Events Rain   

Key: T is trace of precipitation, MM is missing value
Source: NWS Daily Summary
Time(PST)TemperatureDew PointHumidity Pressure Visibility Wind DirectionWind SpeedGust SpeedPrecipitationEvents Conditions
12:08 AM 39.2°F 39.2°F 100% 30.28 in 3.0 miles Calm Calm - N/A   Overcast
12:53 AM 39.9°F 39.0°F 97% 30.30 in 3.0 miles Calm Calm - N/A   Overcast
1:53 AM 42.1°F 39.9°F 92% 30.29 in 6.0 miles Calm Calm - N/A   Overcast
2:53 AM 41.0°F 39.0°F 93% 30.29 in 4.0 miles Calm Calm - N/A   Overcast
3:53 AM 41.0°F 39.0°F 93% 30.29 in 5.0 miles South 4.6 mph - N/A   Overcast
4:53 AM 39.9°F 37.9°F 93% 30.29 in 5.0 miles South 6.9 mph - N/A   Overcast
5:53 AM 39.9°F 37.0°F 89% 30.29 in 10.0 miles South 5.8 mph - N/A   Overcast
6:53 AM 39.9°F 37.9°F 93% 30.30 in 7.0 miles SSE 8.1 mph - N/A   Overcast
7:30 AM 39.2°F 37.4°F 93% 30.26 in 10.0 miles SE 9.2 mph - N/A   Overcast
7:53 AM 39.9°F 39.0°F 97% 30.29 in 6.0 miles SSE 9.2 mph - N/A   Overcast
8:01 AM 41.0°F 39.2°F 93% 30.27 in 5.0 miles SSE 9.2 mph - N/A   Overcast
8:53 AM 41.0°F 39.9°F 96% 30.31 in 4.0 miles South 5.8 mph - N/A   Overcast
9:17 AM 41.0°F 39.2°F 93% 30.28 in 2.0 miles South 8.1 mph - N/A   Overcast
9:26 AM 41.0°F 39.2°F 93% 30.27 in 1.8 miles South 8.1 mph - N/A   Overcast
9:53 AM 42.1°F 41.0°F 96% 30.30 in 1.8 miles South 8.1 mph - N/A   Overcast
10:31 AM 42.8°F 41.0°F 93% 30.29 in 2.0 miles South 4.6 mph - N/A   Overcast
10:53 AM 42.1°F 41.0°F 96% 30.32 in 2.5 miles South 5.8 mph - N/A   Overcast
11:45 AM 42.8°F 42.8°F 100% 30.27 in 1.8 miles Calm Calm - N/A   Overcast
11:53 AM 43.0°F 42.1°F 97% 30.31 in 1.8 miles South 4.6 mph - N/A   Overcast
12:01 PM 42.8°F 42.8°F 100% 30.28 in 2.5 miles South 5.8 mph - N/A   Overcast
12:53 PM 43.0°F 42.1°F 97% 30.29 in 2.0 miles SSE 8.1 mph - N/A   Overcast
1:00 PM 42.8°F 42.8°F 100% 30.25 in 3.0 miles SSE 8.1 mph - N/A   Overcast
1:34 PM 44.6°F 42.8°F 93% 30.23 in 7.0 miles SSE 9.2 mph - N/A   Overcast
1:53 PM 45.0°F 42.1°F 90% 30.26 in 10.0 miles South 10.4 mph - N/A   Overcast
2:53 PM 45.0°F 42.1°F 90% 30.26 in 9.0 miles South 8.1 mph - 0.00 in Rain Light Rain
3:31 PM 44.6°F 42.8°F 93% 30.23 in 5.0 miles South 8.1 mph - 0.00 in Rain Light Rain
3:53 PM 45.0°F 43.0°F 93% 30.25 in 3.0 miles South 8.1 mph - 0.01 in Rain Light Rain
4:04 PM 44.6°F 42.8°F 93% 30.22 in 4.0 miles South 5.8 mph - 0.01 in Rain Light Rain
4:53 PM 44.1°F 43.0°F 96% 30.25 in 4.0 miles South 6.9 mph - 0.02 in Rain Light Rain
5:53 PM 44.1°F 43.0°F 96% 30.25 in 5.0 miles South 6.9 mph - 0.02 in Rain Light Rain
6:53 PM 44.1°F 43.0°F 96% 30.24 in 4.0 miles South 5.8 mph - 0.03 in Rain Light Rain
7:37 PM 44.6°F 42.8°F 93% 30.21 in 4.0 miles South 4.6 mph - 0.01 in Rain Light Rain
7:53 PM 44.1°F 43.0°F 96% 30.24 in 4.0 miles SSE 4.6 mph - 0.02 in Rain Light Rain
8:00 PM 44.6°F 42.8°F 93% 30.21 in 3.0 miles South 4.6 mph - 0.00 in Rain Light Rain
8:09 PM 44.6°F 42.8°F 93% 30.20 in 4.0 miles South 4.6 mph - 0.00 in Rain Light Rain
8:53 PM 44.1°F 43.0°F 96% 30.22 in 5.0 miles South 4.6 mph - 0.00 in   Overcast
9:27 PM 44.6°F 42.8°F 93% 30.19 in 6.0 miles SSE 5.8 mph - N/A   Overcast
9:53 PM 45.0°F 43.0°F 93% 30.22 in 6.0 miles South 6.9 mph - N/A   Overcast
10:32 PM 44.6°F 44.6°F 100% 30.19 in 7.0 miles SSE 6.9 mph - N/A   Overcast
10:53 PM 45.0°F 43.0°F 93% 30.21 in 7.0 miles SSE 8.1 mph - N/A   Overcast
11:32 PM 44.6°F 42.8°F 93% 30.18 in 10.0 miles SSE 8.1 mph - N/A   Overcast
11:53 PM 45.0°F 43.0°F 93% 30.20 in 10.0 miles SSE 8.1 mph - N/A   Overcast
Moon Phase
Feb. 03 Feb. 10 Feb. 17 Feb. 25 Mar. 04
Sunrise:07:36 AM (PST) Moon Rise:01:12 AM (PST)2/3
Sunset:05:12 PM (PST) Moon Set:10:49 AM (PST)2/3

Copyright © 2014 The Weather Underground, Inc.